FW7227 Weather Reports


time (UTC)temp
F
wind
direction
speed
knots
gust
knots
rain 1hr
in
rain 24hr
in
rain mn
in
humidity
%
barometer
mb
20260510180557 64 0 0.0 0.9 0.00 0.00 0.00 73 1007.9
20260510180105 64 0 0.0 0.0 0.00 0.00 0.00 72 1008.0
20260510175556 64 0 0.0 0.0 0.00 0.00 0.00 72 1008.1
20260510175057 64 0 0.0 0.0 0.00 0.00 0.00 71 1008.0
20260510174603 64 0 0.0 0.0 0.00 0.00 0.00 71 1008.0
20260510174057 64 0 0.0 0.9 0.00 0.00 0.00 70 1008.0
20260510173559 64 0 0.0 0.9 0.00 0.00 0.00 70 1008.0
20260510173105 64 0 0.0 0.9 0.00 0.00 0.00 70 1008.0
20260510172556 64 0 0.0 0.9 0.00 0.00 0.00 70 1008.1
20260510172056 64 0 0.0 2.6 0.00 0.00 0.00 70 1008.1
20260510171601 64 0 0.9 4.3 0.00 0.00 0.00 69 1008.2
20260510171056 65 186 0.0 4.3 0.00 0.00 0.00 69 1008.3
20260510170556 65 185 1.7 4.3 0.00 0.00 0.00 68 1008.5
20260510170104 65 178 1.7 4.3 0.00 0.00 0.00 68 1008.5
20260510165558 65 190 0.9 4.3 0.00 0.00 0.00 67 1008.5
20260510165056 65 184 1.7 4.3 0.00 0.00 0.00 67 1008.5
20260510164609 65 185 1.7 3.5 0.00 0.00 0.00 66 1008.5
20260510164055 65 200 0.9 4.3 0.00 0.00 0.00 65 1008.6
20260510163600 65 207 1.7 4.3 0.00 0.00 0.00 64 1008.6
20260510163056 65 178 0.9 5.2 0.00 0.00 0.00 64 1008.6
20260510162556 65 166 0.9 5.2 0.00 0.00 0.00 64 1008.6
20260510162055 65 167 1.7 4.3 0.00 0.00 0.00 64 1008.7
20260510161600 65 171 2.6 7.0 0.00 0.00 0.00 63 1008.8
20260510161056 66 186 2.6 7.0 0.00 0.00 0.00 61 1008.9
20260510160559 66 175 1.7 6.1 0.00 0.00 0.00 61 1008.9
20260510160100 66 204 1.7 7.0 0.00 0.00 0.00 61 1009.0
20260510155556 66 165 2.6 7.0 0.00 0.00 0.00 61 1009.1
20260510155056 67 200 0.9 7.8 0.00 0.00 0.00 60 1009.1
20260510154559 67 172 1.7 10.4 0.00 0.00 0.00 59 1009.1
20260510154057 67 189 3.5 11.3 0.00 0.00 0.00 59 1009.1
20260510153555 68 136 6.1 11.3 0.00 0.00 0.00 59 1009.1
20260510153056 68 164 4.3 8.7 0.00 0.00 0.00 60 1009.2
20260510152557 69 181 4.3 8.7 0.00 0.00 0.00 62 1009.2
20260510152056 69 171 2.6 7.8 0.00 0.00 0.00 59 1009.3
20260510151558 69 178 2.6 7.0 0.00 0.00 0.00 60 1009.3
20260510151057 69 207 2.6 7.0 0.00 0.00 0.00 59 1009.5
20260510150600 69 184 3.5 7.0 0.00 0.00 0.00 59 1009.5
20260510150125 70 138 4.3 7.0 0.00 0.00 0.00 57 1009.6
20260510145600 70 173 2.6 7.8 0.00 0.00 0.00 57 1009.7
20260510145056 69 151 3.5 8.7 0.00 0.00 0.00 57 1009.7
20260510144619 69 161 4.3 8.7 0.00 0.00 0.00 56 1009.8
20260510144058 69 154 2.6 7.0 0.00 0.00 0.00 54 1009.8
20260510143557 69 188 3.5 7.0 0.00 0.00 0.00 53 1009.9
20260510143058 69 163 2.6 7.0 0.00 0.00 0.00 55 1010.0
20260510142556 69 173 1.7 7.0 0.00 0.00 0.00 55 1010.0
20260510142056 69 232 1.7 7.0 0.00 0.00 0.00 55 1010.0
20260510141603 69 192 3.5 7.0 0.00 0.00 0.00 54 1010.1
20260510141056 69 163 4.3 7.0 0.00 0.00 0.00 53 1010.1
20260510140555 69 182 0.9 5.2 0.00 0.00 0.00 53 1010.2
20260510140059 69 187 1.7 5.2 0.00 0.00 0.00 53 1010.3
20260510135556 69 175 2.6 5.2 0.00 0.00 0.00 54 1010.4
20260510135056 69 200 0.9 5.2 0.00 0.00 0.00 54 1010.4
20260510134607 69 189 1.7 5.2 0.00 0.00 0.00 52 1010.5
20260510134056 70 0 0.9 5.2 0.00 0.00 0.00 53 1010.6
20260510133557 70 236 2.6 8.7 0.00 0.00 0.00 53 1010.6
20260510133056 71 0 2.6 8.7 0.00 0.00 0.00 51 1010.6
20260510132556 71 208 0.9 4.3 0.00 0.00 0.00 51 1010.7
20260510132059 71 234 1.7 5.2 0.00 0.00 0.00 51 1010.8
20260510131601 72 191 2.6 7.8 0.00 0.00 0.00 49 1010.8
20260510131056 71 190 4.3 7.8 0.00 0.00 0.00 51 1010.9
20260510130556 71 230 2.6 7.0 0.00 0.00 0.00 50 1010.9
20260510130054 71 317 1.7 5.2 0.00 0.00 0.00 47 1011.0
20260510125557 71 0 1.7 5.2 0.00 0.00 0.00 49 1011.1
20260510125056 71 215 0.9 5.2 0.00 0.00 0.00 46 1011.2
20260510124601 71 186 2.6 6.1 0.00 0.00 0.00 49 1011.3
20260510124057 72 175 2.6 6.1 0.00 0.00 0.00 47 1011.4
20260510123557 72 198 0.9 6.1 0.00 0.00 0.00 47 1011.4
20260510123056 72 172 1.7 7.0 0.00 0.00 0.00 45 1011.4
20260510122556 73 251 1.7 7.0 0.00 0.00 0.00 46 1011.5
20260510122056 72 245 1.7 7.0 0.00 0.00 0.00 47 1011.5
20260510121557 72 167 0.0 7.8 0.00 0.00 0.00 52 1011.6
20260510121058 72 237 2.6 7.8 0.00 0.00 0.00 46 1011.6
20260510120557 72 0 1.7 6.1 0.00 0.00 0.00 47 1011.6
20260510120057 72 223 2.6 7.8 0.00 0.00 0.00 50 1011.7
20260510115556 72 226 1.7 7.8 0.00 0.00 0.00 47 1011.8
20260510115056 72 150 3.5 7.8 0.00 0.00 0.00 49 1011.8
20260510114614 72 171 0.0 8.7 0.00 0.00 0.00 53 1011.9
20260510114056 72 175 0.9 8.7 0.00 0.00 0.00 49 1011.9
20260510113556 71 168 1.7 8.7 0.00 0.00 0.00 51 1012.0
20260510113059 71 174 2.6 8.7 0.00 0.00 0.00 50 1012.0
20260510112556 70 360 1.7 7.8 0.00 0.00 0.00 51 1012.1
20260510112056 70 0 2.6 8.7 0.00 0.00 0.00 49 1012.1
20260510111601 70 167 4.3 8.7 0.00 0.00 0.00 52 1012.2
20260510111056 70 126 3.5 9.6 0.00 0.00 0.00 52 1012.3
20260510110556 70 165 3.5 9.6 0.00 0.00 0.00 51 1012.3
20260510110054 69 213 3.5 7.8 0.00 0.00 0.00 50 1012.3
20260510105556 69 95 3.5 7.8 0.00 0.00 0.00 53 1012.4
20260510105057 69 181 3.5 8.7 0.00 0.00 0.00 53 1012.5
20260510104600 68 175 4.3 8.7 0.00 0.00 0.00 51 1012.4
20260510104056 68 146 4.3 8.7 0.00 0.00 0.00 51 1012.5
20260510103556 69 140 2.6 9.6 0.00 0.00 0.00 54 1012.5
20260510103054 69 177 4.3 9.6 0.00 0.00 0.00 52 1012.7
20260510102556 68 161 4.3 7.8 0.00 0.00 0.00 51 1012.7
20260510102055 68 140 3.5 9.6 0.00 0.00 0.00 54 1012.8
20260510101602 68 107 2.6 9.6 0.00 0.00 0.00 54 1012.8
20260510101057 68 100 4.3 7.8 0.00 0.00 0.00 53 1012.8
20260510100556 68 112 3.5 7.0 0.00 0.00 0.00 51 1012.8
20260510095556 68 166 4.3 11.3 0.00 0.00 0.00 54 1012.8
20260510095055 68 109 2.6 7.0 0.00 0.00 0.00 53 1012.8
20260510094604 68 167 3.5 7.0 0.00 0.00 0.00 54 1012.9
20260510094056 67 0 1.7 8.7 0.00 0.00 0.00 54 1012.9
20260510093556 67 94 1.7 8.7 0.00 0.00 0.00 55 1012.9
20260510093058 67 94 1.7 7.8 0.00 0.00 0.00 56 1012.9
20260510092559 67 123 1.7 8.7 0.00 0.00 0.00 57 1013.0
20260510092056 67 128 4.3 8.7 0.00 0.00 0.00 59 1013.0
20260510091558 67 71 3.5 7.8 0.00 0.00 0.00 57 1013.1
20260510091056 67 92 2.6 8.7 0.00 0.00 0.00 57 1013.1
20260510090556 66 125 5.2 8.7 0.00 0.00 0.00 61 1013.2
20260510090056 66 360 1.7 7.0 0.00 0.00 0.00 63 1013.1
20260510085558 65 165 4.3 7.0 0.00 0.00 0.00 61 1013.1
20260510085056 65 117 1.7 7.0 0.00 0.00 0.00 64 1013.2
20260510084556 65 150 3.5 7.0 0.00 0.00 0.00 62 1013.2
20260510084056 64 59 3.5 7.0 0.00 0.00 0.00 63 1013.2
20260510083557 64 70 1.7 7.8 0.00 0.00 0.00 66 1013.2
20260510083100 64 80 4.3 7.8 0.00 0.00 0.00 66 1013.3
20260510082555 63 74 3.5 7.8 0.00 0.00 0.00 68 1013.2
20260510082056 63 94 3.5 7.0 0.00 0.00 0.00 69 1013.3
20260510081556 62 360 2.6 7.0 0.00 0.00 0.00 69 1013.3
20260510081056 62 360 1.7 4.3 0.00 0.00 0.00 70 1013.5
20260510080556 61 124 0.9 4.3 0.00 0.00 0.00 69 1013.5
20260510080100 60 146 1.7 5.2 0.00 0.00 0.00 70 1013.6
20260510075557 60 360 1.7 5.2 0.00 0.00 0.00 71 1013.6
20260510075056 59 360 0.9 4.3 0.00 0.00 0.00 73 1013.7
20260510074605 59 360 1.7 4.3 0.00 0.00 0.00 73 1013.7
20260510074055 58 360 1.7 5.2 0.00 0.00 0.00 74 1013.7
20260510073556 58 157 2.6 5.2 0.00 0.00 0.00 72 1013.8
20260510073100 58 144 1.7 5.2 0.00 0.00 0.00 73 1013.7
20260510072556 58 360 1.7 5.2 0.00 0.00 0.00 74 1013.9
20260510072056 57 162 1.7 4.3 0.00 0.00 0.00 74 1013.8
20260510071557 57 360 0.9 4.3 0.00 0.00 0.00 74 1013.9
20260510071056 57 360 1.7 5.2 0.00 0.00 0.00 74 1014.0
20260510070556 57 360 1.7 5.2 0.00 0.00 0.00 74 1014.0
20260510070109 56 360 1.7 5.2 0.00 0.00 0.00 75 1014.0
20260510065556 56 360 2.6 5.2 0.00 0.00 0.00 75 1014.1
20260510065056 56 360 1.7 4.3 0.00 0.00 0.00 77 1014.1
20260510064600 55 360 1.7 3.5 0.00 0.00 0.00 77 1014.1
20260510064056 55 360 1.7 7.0 0.00 0.00 0.00 78 1014.0
20260510063556 54 0 0.9 7.0 0.00 0.00 0.00 79 1014.1
20260510063100 53 360 4.3 7.0 0.00 0.00 0.00 80 1014.0
20260510062556 53 360 3.5 7.0 0.00 0.00 0.00 83 1014.1
20260510062056 52 360 1.7 5.2 0.00 0.00 0.00 84 1014.2
20260510061556 51 360 0.9 4.3 0.00 0.00 0.00 87 1014.2
20260510061057 50 360 0.9 4.3 0.00 0.00 0.00 89 1014.2
20260510060557 49 360 1.7 4.3 0.00 0.00 0.00 90 1014.2
20260510055556 48 360 0.9 2.6 0.00 0.00 0.00 91 1014.3
20260510055057 48 0 0.0 1.7 0.00 0.00 0.00 91 1014.4
20260510054601 47 0 0.0 1.7 0.00 0.00 0.00 92 1014.4
20260510054057 47 0 0.0 0.9 0.00 0.00 0.00 92 1014.3
20260510053559 46 0 0.0 0.9 0.00 0.00 0.00 91 1014.4
20260510053055 46 0 0.0 0.9 0.00 0.00 0.00 92 1014.4
20260510052557 46 0 0.0 2.6 0.00 0.00 0.00 91 1014.4
20260510052056 46 0 0.0 2.6 0.00 0.00 0.00 91 1014.4
20260510051557 45 0 0.0 0.0 0.00 0.00 0.00 91 1014.3
20260510051100 45 0 0.0 0.0 0.00 0.00 0.00 91 1014.4
20260510050557 45 0 0.0 0.0 0.00 0.00 0.00 91 1014.4
20260510050100 45 0 0.0 0.0 0.00 0.00 0.00 91 1014.4
20260510045559 45 0 0.0 0.0 0.00 0.00 0.00 91 1014.4
20260510045056 44 0 0.0 2.6 0.00 0.00 0.00 90 1014.3
20260510044611 44 0 0.0 2.6 0.00 0.00 0.00 90 1014.4
20260510044100 44 0 0.0 0.0 0.00 0.00 0.00 90 1014.4
20260510043557 44 0 0.0 0.0 0.00 0.00 0.00 89 1014.5
20260510043104 44 0 0.0 0.0 0.00 0.00 0.00 89 1014.7
20260510042557 44 0 0.0 0.0 0.00 0.00 0.00 89 1014.7
20260510042059 44 0 0.0 0.0 0.00 0.00 0.00 89 1014.7
20260510041559 44 0 0.0 0.0 0.00 0.00 0.00 89 1014.7
20260510041057 43 0 0.0 0.0 0.00 0.00 0.00 88 1014.7
20260510040558 43 0 0.0 0.0 0.00 0.00 0.00 88 1014.7
20260510040056 43 0 0.0 0.0 0.00 0.00 0.00 88 1014.7
20260510035557 43 0 0.0 0.0 0.00 0.00 0.00 87 1014.8
20260510035059 43 0 0.0 0.0 0.00 0.00 0.00 87 1014.9
20260510034558 43 0 0.0 0.0 0.00 0.00 0.00 87 1014.9
20260510034058 44 0 0.0 0.0 0.00 0.00 0.00 87 1014.8
20260510033601 44 0 0.0 0.9 0.00 0.00 0.00 86 1014.9
20260510033123 44 0 0.0 1.7 0.00 0.00 0.00 86 1014.9
20260510032600 44 0 0.0 2.6 0.00 0.00 0.00 86 1014.9
20260510032057 44 0 0.0 2.6 0.00 0.00 0.00 86 1015.0
20260510031619 44 360 0.0 0.0 0.00 0.00 0.00 86 1015.0
20260510031058 44 0 0.0 0.0 0.00 0.00 0.00 86 1014.9
20260510030557 45 0 0.0 0.0 0.00 0.00 0.00 86 1015.0
20260510030101 45 0 0.0 0.0 0.00 0.00 0.00 86 1014.9
20260510025557 45 0 0.0 0.0 0.00 0.00 0.00 86 1015.1
20260510025058 45 0 0.0 0.0 0.00 0.00 0.00 86 1015.1
20260510024557 45 0 0.0 0.0 0.00 0.00 0.00 86 1015.1
20260510024101 45 0 0.0 0.9 0.00 0.00 0.00 87 1015.2
20260510023557 45 0 0.0 2.6 0.00 0.00 0.00 87 1015.2
20260510023055 45 0 0.0 2.6 0.00 0.00 0.00 87 1015.3
20260510022557 45 360 0.0 3.5 0.00 0.00 0.00 87 1015.3
20260510022058 45 0 0.0 3.5 0.00 0.00 0.00 87 1015.2
20260510021556 45 360 1.7 3.5 0.00 0.00 0.00 87 1015.3
20260510021056 45 360 1.7 4.3 0.00 0.00 0.00 87 1015.3
20260510020557 45 360 1.7 4.3 0.00 0.00 0.00 86 1015.4
20260510020058 45 360 1.7 4.3 0.00 0.00 0.00 86 1015.4
20260510015600 45 360 0.9 2.6 0.00 0.00 0.00 85 1015.5
20260510015056 45 360 0.0 0.9 0.00 0.00 0.00 84 1015.6
20260510014608 45 0 0.0 0.0 0.00 0.00 0.00 84 1015.7
20260510014058 46 0 0.0 0.0 0.00 0.00 0.00 84 1015.8
20260510013558 46 0 0.0 0.0 0.00 0.00 0.00 85 1015.7
20260510013057 46 0 0.0 1.7 0.00 0.00 0.00 85 1015.8
20260510012557 46 0 0.0 2.6 0.00 0.00 0.00 85 1015.7
20260510012059 46 0 0.0 3.5 0.00 0.00 0.00 85 1015.6
20260510011600 46 0 0.9 5.2 0.00 0.00 0.00 85 1015.7
20260510011101 46 360 0.9 7.0 0.00 0.00 0.00 85 1015.7
20260510010557 46 360 0.9 7.0 0.00 0.00 0.00 85 1015.6
20260510010103 46 360 2.6 7.0 0.00 0.00 0.00 85 1015.7
20260510005557 46 360 2.6 7.0 0.00 0.00 0.00 85 1015.8
20260510005056 46 360 2.6 7.0 0.00 0.00 0.00 86 1015.8
20260510004558 46 360 2.6 7.0 0.00 0.00 0.00 86 1015.8
20260510004056 46 360 1.7 5.2 0.00 0.00 0.00 86 1016.0
20260510003558 46 360 1.7 5.2 0.00 0.00 0.00 86 1016.1
20260510003101 46 360 1.7 5.2 0.00 0.00 0.00 86 1016.1
20260510002556 46 360 2.6 5.2 0.00 0.00 0.00 86 1016.1
20260510002057 46 360 2.6 5.2 0.00 0.00 0.00 86 1016.1
20260510001557 46 360 0.9 4.3 0.00 0.00 0.00 86 1016.3
20260510001124 46 360 0.9 5.2 0.00 0.00 0.00 86 1016.3
20260510000601 46 360 0.9 7.0 0.00 0.00 0.00 87 1016.4
20260510000059 46 360 0.9 7.0 0.00 0.00 0.00 87 1016.4
20260509235559 45 360 1.7 7.8 0.00 0.00 0.00 87 1016.5
20260509235057 45 360 2.6 7.8 0.00 0.00 0.00 88 1016.6
20260509234606 45 360 1.7 5.2 0.00 0.00 0.00 88 1016.6
20260509234057 45 360 1.7 5.2 0.00 0.00 0.00 88 1016.6
20260509233559 45 360 2.6 5.2 0.00 0.00 0.00 88 1016.6
20260509233057 45 360 2.6 5.2 0.00 0.00 0.00 87 1016.7
20260509232557 44 360 1.7 5.2 0.00 0.00 0.00 87 1016.7
20260509232057 44 360 1.7 4.3 0.00 0.00 0.00 86 1016.9
20260509231556 44 360 0.9 4.3 0.00 0.00 0.00 86 1017.0
20260509231057 44 0 0.9 3.5 0.00 0.00 0.00 85 1017.0
20260509230556 44 360 0.9 3.5 0.00 0.00 0.00 85 1017.1
20260509230057 44 360 1.7 3.5 0.00 0.00 0.00 83 1017.0
20260509225557 44 360 0.9 3.5 0.00 0.00 0.00 82 1017.1
20260509225057 45 360 0.9 2.6 0.00 0.00 0.00 82 1017.3
20260509224557 45 0 0.9 1.7 0.00 0.00 0.00 82 1017.5
20260509224058 45 360 0.0 1.7 0.00 0.00 0.00 82 1017.5
20260509223557 45 0 0.0 0.9 0.00 0.00 0.00 82 1017.6
20260509223059 45 0 0.0 0.0 0.00 0.00 0.00 82 1017.5
20260509222559 46 0 0.0 0.0 0.00 0.00 0.00 81 1017.4
20260509222057 46 0 0.0 1.7 0.00 0.00 0.00 81 1017.4
20260509221557 46 0 0.0 1.7 0.00 0.00 0.00 82 1017.4
20260509221057 46 0 0.0 2.6 0.00 0.00 0.00 82 1017.4
20260509220557 46 0 0.0 2.6 0.00 0.00 0.00 82 1017.5
20260509215557 47 360 1.7 3.5 0.00 0.00 0.00 81 1017.7
20260509215057 47 360 0.0 2.6 0.00 0.00 0.00 81 1017.8
20260509214558 47 0 0.0 2.6 0.00 0.00 0.00 81 1017.8
20260509214057 47 0 0.0 0.9 0.00 0.00 0.00 80 1017.9
20260509213557 48 0 0.0 1.7 0.00 0.00 0.00 80 1017.9
20260509213058 48 0 0.0 2.6 0.00 0.00 0.00 80 1017.9
20260509212557 48 360 0.0 2.6 0.00 0.00 0.00 80 1017.9
20260509212057 48 360 1.7 2.6 0.00 0.00 0.00 80 1017.9
20260509211604 49 360 0.0 2.6 0.00 0.00 0.00 79 1017.9
20260509211057 49 0 0.0 2.6 0.00 0.00 0.00 78 1018.0
20260509210557 49 0 0.0 2.6 0.00 0.00 0.00 77 1017.8
20260509210100 49 0 0.0 2.6 0.00 0.00 0.00 77 1017.9
20260509205558 50 0 0.0 2.6 0.00 0.00 0.00 77 1017.9
20260509205101 50 360 0.0 1.7 0.00 0.00 0.00 76 1017.9
20260509204604 50 0 0.0 1.7 0.00 0.00 0.00 76 1017.9
20260509204058 51 0 0.0 2.6 0.00 0.00 0.00 76 1017.9
20260509203556 51 0 0.9 2.6 0.00 0.00 0.00 75 1018.0
20260509203055 51 360 0.9 2.6 0.00 0.00 0.00 75 1018.1
20260509202556 51 360 0.9 2.6 0.00 0.00 0.00 75 1018.1
20260509202057 51 360 0.9 3.5 0.00 0.00 0.00 75 1018.1
20260509201600 52 360 0.9 3.5 0.00 0.00 0.00 75 1018.1
20260509201057 52 0 1.7 7.8 0.00 0.00 0.00 75 1018.1
20260509200555 52 360 2.6 7.8 0.00 0.00 0.00 75 1018.1
20260509200057 52 360 3.5 5.2 0.00 0.00 0.00 74 1018.0
20260509195558 53 360 1.7 5.2 0.00 0.00 0.00 74 1018.1
20260509195057 53 360 1.7 4.3 0.00 0.00 0.00 73 1018.1
20260509194558 53 360 1.7 3.5 0.00 0.00 0.00 73 1018.1
20260509194101 53 360 0.9 3.5 0.00 0.00 0.00 73 1018.1
20260509193557 53 360 0.9 3.5 0.00 0.00 0.00 73 1018.1
20260509193058 54 360 1.7 3.5 0.00 0.00 0.00 72 1018.0
20260509192557 54 360 0.9 4.3 0.00 0.00 0.00 72 1018.0
20260509192057 54 360 1.7 4.3 0.00 0.00 0.00 72 1017.9
20260509191611 54 360 1.7 4.3 0.00 0.00 0.00 72 1017.9
20260509191100 54 360 2.6 4.3 0.00 0.00 0.00 71 1018.0
20260509190556 55 360 1.7 3.5 0.00 0.00 0.00 70 1018.0
20260509190106 55 360 1.7 3.5 0.00 0.00 0.00 70 1018.0
20260509185557 55 360 0.9 3.5 0.00 0.00 0.00 69 1018.0
20260509185057 55 360 0.9 4.3 0.00 0.00 0.00 69 1018.0
20260509184558 55 360 0.9 5.2 0.00 0.00 0.00 68 1017.9
20260509184058 56 360 2.6 5.2 0.00 0.00 0.00 68 1017.8
20260509183556 56 360 2.6 5.2 0.00 0.00 0.00 67 1017.8
20260509183107 56 360 1.7 5.2 0.00 0.00 0.00 67 1017.9
20260509182556 56 360 1.7 5.2 0.00 0.00 0.00 66 1017.9
20260509182057 57 360 2.6 5.2 0.00 0.00 0.00 66 1018.0
20260509181606 57 360 2.6 5.2 0.00 0.00 0.00 65 1017.9
20260509181058 57 360 2.6 7.8 0.00 0.00 0.00 65 1017.9